DLH908 EDDF-EGLL

Flight info

Callsign DLH908
Flight time 1h 11m
Altitude 36000
Route OBOKA3W/25C OBOKA Z29 TORNU DCT ABNED L980 LOGAN
Aircraft A320/M-SDE3FGHIRWY/LB1

Departure

Time 2026-05-06 19:26
Airport Frankfurt Main Airport (EDDF)

Arrival

Time 2026-05-06 20:38
Airport London Heathrow Airport (EGLL)
Time Latitude Longitude Altitude Speed Heading
2026-05-06 18:44 50.04531 8.56591 365 ft 0 kts 116°
2026-05-06 19:14 50.04537 8.56571 364 ft 4 kts 116°
2026-05-06 19:14 50.04549 8.56533 363 ft 4 kts 115°
2026-05-06 19:14 50.04561 8.56497 360 ft 4 kts 128°
2026-05-06 19:14 50.04580 8.56471 361 ft 4 kts 170°
2026-05-06 19:15 50.04593 8.56471 361 ft 0 kts 206°
2026-05-06 19:18 50.04584 8.56464 361 ft 5 kts 206°
2026-05-06 19:19 50.04526 8.56407 362 ft 13 kts 229°
2026-05-06 19:19 50.04488 8.56266 359 ft 15 kts 250°
2026-05-06 19:19 50.04450 8.56103 363 ft 13 kts 248°
2026-05-06 19:19 50.04396 8.56030 356 ft 11 kts 177°
2026-05-06 19:20 50.04323 8.56067 356 ft 12 kts 160°
2026-05-06 19:20 50.04290 8.56170 355 ft 11 kts 91°
2026-05-06 19:20 50.04242 8.56240 358 ft 9 kts 159°
2026-05-06 19:20 50.04187 8.56272 359 ft 8 kts 159°
2026-05-06 19:21 50.04145 8.56313 360 ft 7 kts 120°
2026-05-06 19:21 50.04151 8.56379 358 ft 6 kts 70°
2026-05-06 19:21 50.04183 8.56514 364 ft 17 kts 70°
2026-05-06 19:21 50.04219 8.56668 365 ft 14 kts 70°
2026-05-06 19:22 50.04254 8.56811 364 ft 15 kts 69°
2026-05-06 19:22 50.04294 8.56975 367 ft 16 kts 70°
2026-05-06 19:22 50.04333 8.57140 366 ft 16 kts 70°
2026-05-06 19:22 50.04369 8.57290 365 ft 15 kts 70°
2026-05-06 19:23 50.04423 8.57523 366 ft 24 kts 68°
2026-05-06 19:23 50.04473 8.57725 373 ft 20 kts 69°
2026-05-06 19:23 50.04522 8.57926 372 ft 19 kts 70°
2026-05-06 19:23 50.04563 8.58101 371 ft 16 kts 71°
2026-05-06 19:24 50.04598 8.58255 372 ft 14 kts 70°
2026-05-06 19:24 50.04628 8.58379 373 ft 12 kts 68°
2026-05-06 19:24 50.04656 8.58514 371 ft 11 kts 89°
2026-05-06 19:24 50.04614 8.58580 369 ft 9 kts 158°
2026-05-06 19:25 50.04557 8.58614 371 ft 8 kts 161°
2026-05-06 19:25 50.04500 8.58607 372 ft 11 kts 216°
2026-05-06 19:25 50.04453 8.58452 370 ft 29 kts 249°
2026-05-06 19:25 50.04290 8.57759 366 ft 104 kts 249°
2026-05-06 19:26 50.03975 8.56413 362 ft 159 kts 249°
2026-05-06 19:26 50.03615 8.54723 953 ft 165 kts 252°
2026-05-06 19:26 50.03218 8.53056 1799 ft 167 kts 252°
2026-05-06 19:26 50.02784 8.51276 2271 ft 187 kts 251°
2026-05-06 19:27 50.02056 8.49490 2765 ft 204 kts 227°
2026-05-06 19:27 50.00842 8.48283 3541 ft 211 kts 201°
2026-05-06 19:27 49.99404 8.47834 4512 ft 211 kts 191°
2026-05-06 19:27 49.97960 8.47517 5452 ft 209 kts 191°
2026-05-06 19:28 49.96506 8.47194 6330 ft 211 kts 192°
2026-05-06 19:28 49.95039 8.46618 6811 ft 230 kts 199°
2026-05-06 19:28 49.93447 8.45874 7410 ft 244 kts 201°
2026-05-06 19:28 49.91923 8.44699 8257 ft 247 kts 218°
2026-05-06 19:29 49.90695 8.42883 9153 ft 249 kts 234°
2026-05-06 19:29 49.89770 8.40588 10015 ft 253 kts 240°
2026-05-06 19:29 49.88980 8.38132 10818 ft 257 kts 251°
2026-05-06 19:29 49.88622 8.35366 11426 ft 273 kts 267°
2026-05-06 19:30 49.88733 8.32298 11748 ft 297 kts 274°
2026-05-06 19:30 49.88954 8.28981 12117 ft 318 kts 279°
2026-05-06 19:30 49.89648 8.25666 12679 ft 330 kts 295°
2026-05-06 19:30 49.90951 8.22607 13402 ft 336 kts 306°
2026-05-06 19:31 49.92326 8.19758 14153 ft 340 kts 305°
2026-05-06 19:31 49.93759 8.16818 14886 ft 344 kts 309°
2026-05-06 19:31 49.97324 8.11722 16322 ft 352 kts 317°
2026-05-06 19:32 49.99188 8.09232 17056 ft 355 kts 318°
2026-05-06 19:32 50.01066 8.06719 17799 ft 358 kts 318°
2026-05-06 19:32 50.02967 8.04171 18477 ft 361 kts 318°
2026-05-06 19:32 50.04870 8.01619 19084 ft 364 kts 318°
2026-05-06 19:33 50.06774 7.99061 19618 ft 368 kts 317°
2026-05-06 19:33 50.08722 7.96443 19818 ft 369 kts 318°
2026-05-06 19:33 50.10666 7.93831 19850 ft 369 kts 317°
2026-05-06 19:33 50.12620 7.91199 20286 ft 372 kts 317°
2026-05-06 19:34 50.14582 7.88552 20936 ft 375 kts 317°
2026-05-06 19:34 50.16567 7.85873 21541 ft 378 kts 317°
2026-05-06 19:34 50.18558 7.83184 22122 ft 381 kts 317°
2026-05-06 19:34 50.20570 7.80465 22697 ft 384 kts 317°
2026-05-06 19:35 50.22602 7.77717 23270 ft 387 kts 317°
2026-05-06 19:35 50.24677 7.75012 23744 ft 392 kts 322°
2026-05-06 19:35 50.27020 7.72768 24190 ft 397 kts 332°
2026-05-06 19:35 50.29553 7.71005 24621 ft 402 kts 335°
2026-05-06 19:36 50.32125 7.69251 25047 ft 405 kts 335°
2026-05-06 19:36 50.34725 7.67475 25486 ft 409 kts 335°
2026-05-06 19:36 50.37336 7.65690 25784 ft 412 kts 335°
2026-05-06 19:36 50.39967 7.63888 25866 ft 412 kts 335°
2026-05-06 19:37 50.42596 7.62083 25872 ft 412 kts 335°
2026-05-06 19:37 50.45230 7.60271 25869 ft 412 kts 335°
2026-05-06 19:37 50.47819 7.58485 25871 ft 412 kts 335°
2026-05-06 19:37 50.49592 7.57260 25871 ft 412 kts 334°
2026-05-06 19:38 50.53099 7.54837 25877 ft 412 kts 334°
2026-05-06 19:38 50.55703 7.52956 25876 ft 411 kts 330°
2026-05-06 19:38 50.58093 7.50645 25875 ft 409 kts 325°
2026-05-06 19:38 50.60483 7.48192 25882 ft 409 kts 325°
2026-05-06 19:39 50.62867 7.45744 25880 ft 409 kts 325°
2026-05-06 19:39 50.65256 7.43293 25885 ft 409 kts 325°
2026-05-06 19:39 50.67642 7.40843 25885 ft 409 kts 325°
2026-05-06 19:39 50.70024 7.38395 25891 ft 409 kts 325°
2026-05-06 19:40 50.72328 7.35817 25890 ft 407 kts 318°
2026-05-06 19:40 50.74342 7.32683 25891 ft 405 kts 309°
2026-05-06 19:40 50.75987 7.29090 25893 ft 403 kts 299°
2026-05-06 19:40 50.77306 7.25174 25893 ft 403 kts 296°
2026-05-06 19:41 50.78584 7.21245 25892 ft 403 kts 296°
2026-05-06 19:41 50.79867 7.17299 25892 ft 403 kts 296°
2026-05-06 19:41 50.81147 7.13366 25894 ft 403 kts 296°
2026-05-06 19:41 50.82435 7.09411 25893 ft 403 kts 296°
2026-05-06 19:42 50.83715 7.05470 25895 ft 403 kts 296°
2026-05-06 19:42 50.84995 7.01515 25890 ft 404 kts 296°
2026-05-06 19:42 50.86275 6.97548 26022 ft 406 kts 296°
2026-05-06 19:42 50.87566 6.93540 26490 ft 409 kts 296°
2026-05-06 19:43 50.88860 6.89516 26936 ft 411 kts 296°
2026-05-06 19:43 50.90160 6.85466 27385 ft 414 kts 295°
2026-05-06 19:43 50.91471 6.81375 27818 ft 417 kts 295°
2026-05-06 19:43 50.92770 6.77310 28227 ft 420 kts 295°
2026-05-06 19:44 50.94096 6.73161 28632 ft 423 kts 295°
2026-05-06 19:44 50.95430 6.68990 29058 ft 425 kts 295°
2026-05-06 19:44 50.96771 6.64792 29470 ft 428 kts 295°
2026-05-06 19:44 50.98115 6.60577 29883 ft 430 kts 295°
2026-05-06 19:45 50.99469 6.56319 30239 ft 432 kts 295°
2026-05-06 19:45 51.00826 6.52045 30581 ft 434 kts 295°
2026-05-06 19:45 51.02186 6.47752 30915 ft 436 kts 295°
2026-05-06 19:45 51.03553 6.43425 31246 ft 438 kts 295°
2026-05-06 19:46 51.04920 6.39078 31576 ft 440 kts 295°
2026-05-06 19:46 51.06283 6.34742 32027 ft 438 kts 295°
2026-05-06 19:46 51.07643 6.30410 32487 ft 437 kts 295°
2026-05-06 19:46 51.08999 6.26090 32950 ft 435 kts 295°
2026-05-06 19:47 51.10349 6.21784 33409 ft 434 kts 295°
2026-05-06 19:47 51.11669 6.17557 33866 ft 433 kts 295°
2026-05-06 19:47 51.13027 6.13197 34245 ft 432 kts 294°
2026-05-06 19:47 51.14165 6.08851 34578 ft 430 kts 286°
2026-05-06 19:48 51.14948 6.04264 34884 ft 429 kts 283°
2026-05-06 19:48 51.15699 5.99607 35198 ft 429 kts 283°
2026-05-06 19:48 51.16445 5.95000 35499 ft 429 kts 283°
2026-05-06 19:48 51.17191 5.90402 35797 ft 429 kts 283°
2026-05-06 19:49 51.17927 5.85862 35907 ft 427 kts 283°
2026-05-06 19:49 51.18849 5.81381 35919 ft 424 kts 291°
2026-05-06 19:49 51.21142 5.72750 35926 ft 422 kts 291°
2026-05-06 19:50 51.23416 5.64141 35933 ft 421 kts 291°
2026-05-06 19:50 51.25675 5.55528 35940 ft 421 kts 291°
2026-05-06 19:51 51.27930 5.46905 35946 ft 421 kts 291°
2026-05-06 19:51 51.30178 5.38265 35945 ft 421 kts 291°
2026-05-06 19:52 51.32427 5.29617 35946 ft 420 kts 291°
2026-05-06 19:52 51.34659 5.20982 35948 ft 420 kts 291°
2026-05-06 19:53 51.36881 5.12338 35944 ft 420 kts 291°
2026-05-06 19:53 51.39082 5.03754 35949 ft 420 kts 291°
2026-05-06 19:54 51.41299 4.95098 35948 ft 420 kts 291°
2026-05-06 19:54 51.43511 4.86437 35952 ft 420 kts 291°
2026-05-06 19:55 51.45714 4.77770 35956 ft 420 kts 291°
2026-05-06 19:55 51.47901 4.69103 35959 ft 420 kts 291°
2026-05-06 19:56 51.49718 4.61885 35959 ft 420 kts 291°
2026-05-06 19:56 51.51895 4.53208 35959 ft 419 kts 291°
2026-05-06 19:57 51.54069 4.44523 35960 ft 419 kts 291°
2026-05-06 19:57 51.56233 4.35834 35959 ft 419 kts 291°
2026-05-06 19:58 51.58391 4.27136 35962 ft 418 kts 290°
2026-05-06 19:58 51.60534 4.18444 35957 ft 418 kts 290°
2026-05-06 19:59 51.62671 4.09751 35961 ft 418 kts 290°
2026-05-06 19:59 51.64801 4.01051 35959 ft 417 kts 290°
2026-05-06 20:00 51.66915 3.92350 35960 ft 417 kts 290°
2026-05-06 20:00 51.69037 3.83657 35970 ft 416 kts 290°
2026-05-06 20:01 51.71123 3.75015 35974 ft 415 kts 290°
2026-05-06 20:01 51.73223 3.66285 35964 ft 414 kts 290°
2026-05-06 20:02 51.75313 3.57629 35973 ft 414 kts 290°
2026-05-06 20:02 51.77391 3.48967 35983 ft 413 kts 290°
2026-05-06 20:03 51.79456 3.40311 35988 ft 413 kts 290°
2026-05-06 20:03 51.81504 3.31659 35987 ft 412 kts 289°
2026-05-06 20:04 51.83540 3.23009 35997 ft 411 kts 289°
2026-05-06 20:04 51.84607 3.14065 35994 ft 408 kts 270°
2026-05-06 20:05 51.84125 3.04925 35990 ft 408 kts 264°
2026-05-06 20:05 51.83529 2.95787 35988 ft 408 kts 264°
2026-05-06 20:06 51.82932 2.86644 35991 ft 409 kts 264°
2026-05-06 20:06 51.82320 2.77494 35987 ft 409 kts 264°
2026-05-06 20:07 51.81701 2.68406 35992 ft 409 kts 263°
2026-05-06 20:07 51.81070 2.59205 35760 ft 413 kts 263°
2026-05-06 20:08 51.80753 2.54629 35199 ft 413 kts 263°
2026-05-06 20:08 51.80435 2.50044 34717 ft 409 kts 263°
2026-05-06 20:08 51.80117 2.45487 34216 ft 406 kts 263°
2026-05-06 20:08 51.79799 2.40971 33671 ft 404 kts 263°
2026-05-06 20:09 51.79481 2.36491 33177 ft 399 kts 263°
2026-05-06 20:09 51.79165 2.32047 32696 ft 394 kts 263°
2026-05-06 20:09 51.78852 2.27679 32220 ft 390 kts 263°
2026-05-06 20:09 51.78538 2.23343 31736 ft 387 kts 263°
2026-05-06 20:10 51.78238 2.19056 31263 ft 383 kts 264°
2026-05-06 20:10 51.77978 2.14787 30795 ft 379 kts 265°
2026-05-06 20:10 51.77742 2.10571 30347 ft 376 kts 265°
2026-05-06 20:10 51.77511 2.06383 29864 ft 373 kts 265°
2026-05-06 20:11 51.77277 2.02233 29420 ft 367 kts 265°
2026-05-06 20:11 51.77041 1.98163 28993 ft 362 kts 264°
2026-05-06 20:11 51.76805 1.94187 28592 ft 357 kts 264°
2026-05-06 20:11 51.76565 1.90177 28180 ft 352 kts 264°
2026-05-06 20:12 51.76331 1.86329 27783 ft 347 kts 264°
2026-05-06 20:12 51.76094 1.82469 27382 ft 343 kts 264°
2026-05-06 20:12 51.75857 1.78657 26985 ft 340 kts 264°
2026-05-06 20:12 51.75621 1.74878 26563 ft 337 kts 264°
2026-05-06 20:13 51.75385 1.71142 26152 ft 334 kts 264°
2026-05-06 20:13 51.75149 1.67374 25980 ft 343 kts 264°
2026-05-06 20:13 51.74908 1.63498 25986 ft 349 kts 264°
2026-05-06 20:13 51.74663 1.59538 25201 ft 360 kts 264°
2026-05-06 20:14 51.74409 1.55491 24471 ft 365 kts 264°
2026-05-06 20:14 51.74150 1.51435 23771 ft 359 kts 264°
2026-05-06 20:14 51.73888 1.47568 23643 ft 342 kts 264°
2026-05-06 20:14 51.73630 1.43765 23370 ft 338 kts 264°
2026-05-06 20:15 51.73371 1.39999 23088 ft 337 kts 264°
2026-05-06 20:15 51.73113 1.36259 22903 ft 334 kts 264°
2026-05-06 20:15 51.72856 1.32576 22247 ft 329 kts 264°
2026-05-06 20:15 51.72599 1.28925 21453 ft 326 kts 264°
2026-05-06 20:16 51.72341 1.25301 20698 ft 323 kts 264°
2026-05-06 20:16 51.72084 1.21729 19977 ft 319 kts 264°
2026-05-06 20:16 51.71828 1.18232 19294 ft 316 kts 264°
2026-05-06 20:16 51.71568 1.14720 18625 ft 314 kts 264°
2026-05-06 20:17 51.71327 1.11202 17919 ft 311 kts 265°
2026-05-06 20:17 51.71115 1.07695 17436 ft 311 kts 265°
2026-05-06 20:17 51.70919 1.04313 17060 ft 309 kts 265°
2026-05-06 20:17 51.70721 1.00878 16698 ft 307 kts 265°
2026-05-06 20:18 51.70523 0.97455 16327 ft 306 kts 265°
2026-05-06 20:18 51.70323 0.94056 15921 ft 303 kts 265°
2026-05-06 20:18 51.70107 0.90670 15433 ft 304 kts 265°
2026-05-06 20:18 51.69877 0.87310 15100 ft 302 kts 264°
2026-05-06 20:19 51.69637 0.83944 14762 ft 301 kts 264°
2026-05-06 20:19 51.69396 0.80607 14435 ft 300 kts 264°
2026-05-06 20:19 51.69155 0.77269 14101 ft 299 kts 264°
2026-05-06 20:19 51.68919 0.73958 13600 ft 296 kts 264°
2026-05-06 20:20 51.68684 0.70664 13091 ft 295 kts 264°
2026-05-06 20:20 51.68451 0.67387 12622 ft 293 kts 264°
2026-05-06 20:20 51.68218 0.64141 12156 ft 291 kts 264°
2026-05-06 20:20 51.67988 0.60907 11709 ft 290 kts 264°
2026-05-06 20:21 51.67756 0.57686 11316 ft 288 kts 264°
2026-05-06 20:21 51.67526 0.54494 10918 ft 286 kts 264°
2026-05-06 20:21 51.67295 0.51314 10526 ft 284 kts 264°
2026-05-06 20:21 51.67066 0.48167 10129 ft 283 kts 264°
2026-05-06 20:22 51.66835 0.45031 9703 ft 281 kts 264°
2026-05-06 20:22 51.66605 0.41907 9256 ft 280 kts 264°
2026-05-06 20:22 51.66379 0.38841 8807 ft 278 kts 264°
2026-05-06 20:22 51.66150 0.35755 8389 ft 277 kts 264°
2026-05-06 20:23 51.65918 0.32641 8048 ft 274 kts 264°
2026-05-06 20:23 51.65690 0.29586 8013 ft 276 kts 264°
2026-05-06 20:23 51.65462 0.26554 8019 ft 277 kts 264°
2026-05-06 20:23 51.65226 0.23435 8026 ft 277 kts 264°
2026-05-06 20:24 51.64993 0.20351 8026 ft 277 kts 264°
2026-05-06 20:24 51.64772 0.17322 8029 ft 277 kts 265°
2026-05-06 20:24 51.64616 0.14227 8019 ft 277 kts 266°
2026-05-06 20:24 51.64478 0.11171 8024 ft 277 kts 266°
2026-05-06 20:25 51.64341 0.08066 8028 ft 277 kts 266°
2026-05-06 20:25 51.64206 0.04970 8027 ft 278 kts 266°
2026-05-06 20:25 51.64072 0.01874 7874 ft 275 kts 266°
2026-05-06 20:25 51.63945 -0.01196 7437 ft 275 kts 266°
2026-05-06 20:26 51.63828 -0.04258 7074 ft 274 kts 266°
2026-05-06 20:26 51.63717 -0.07327 7046 ft 275 kts 266°
2026-05-06 20:26 51.63605 -0.10405 7049 ft 276 kts 266°
2026-05-06 20:26 51.63399 -0.13473 7053 ft 275 kts 258°
2026-05-06 20:27 51.62982 -0.16480 7055 ft 275 kts 256°
2026-05-06 20:27 51.62537 -0.19443 7054 ft 275 kts 256°
2026-05-06 20:27 51.62082 -0.22429 7057 ft 275 kts 256°
2026-05-06 20:27 51.61623 -0.25412 7057 ft 275 kts 256°
2026-05-06 20:28 51.61160 -0.28396 7059 ft 275 kts 256°
2026-05-06 20:28 51.60692 -0.31380 7028 ft 274 kts 256°
2026-05-06 20:28 51.60221 -0.34351 7026 ft 274 kts 256°
2026-05-06 20:28 51.59746 -0.37323 7026 ft 274 kts 256°
2026-05-06 20:29 51.59266 -0.40284 7029 ft 274 kts 256°
2026-05-06 20:29 51.58785 -0.43243 7029 ft 274 kts 256°
2026-05-06 20:29 51.58299 -0.46201 6977 ft 272 kts 256°
2026-05-06 20:29 51.57815 -0.49124 6591 ft 270 kts 256°
2026-05-06 20:30 51.57330 -0.52049 6175 ft 269 kts 256°
2026-05-06 20:30 51.56386 -0.57725 5745 ft 251 kts 256°
2026-05-06 20:30 51.55944 -0.60371 5572 ft 239 kts 256°
2026-05-06 20:31 51.55520 -0.62896 5235 ft 236 kts 256°
2026-05-06 20:31 51.55094 -0.65431 4926 ft 234 kts 256°
2026-05-06 20:31 51.54669 -0.67941 4599 ft 233 kts 256°
2026-05-06 20:31 51.54239 -0.70437 4267 ft 232 kts 256°
2026-05-06 20:32 51.53804 -0.72927 4028 ft 230 kts 256°
2026-05-06 20:32 51.53368 -0.75418 4005 ft 232 kts 255°
2026-05-06 20:32 51.52624 -0.77646 4005 ft 223 kts 225°
2026-05-06 20:32 51.51317 -0.78802 3916 ft 214 kts 191°
2026-05-06 20:33 51.49872 -0.78769 3788 ft 205 kts 164°
2026-05-06 20:33 51.48627 -0.77863 3604 ft 193 kts 140°
2026-05-06 20:33 51.47820 -0.76206 3276 ft 186 kts 111°
2026-05-06 20:33 51.47617 -0.74223 2998 ft 179 kts 86°
2026-05-06 20:34 51.47629 -0.72191 2973 ft 185 kts 86°
2026-05-06 20:34 51.47641 -0.70133 2787 ft 184 kts 87°
2026-05-06 20:34 51.47652 -0.68110 2565 ft 183 kts 86°
2026-05-06 20:34 51.47663 -0.66084 2313 ft 181 kts 86°
2026-05-06 20:35 51.47673 -0.64144 2076 ft 166 kts 86°
2026-05-06 20:35 51.47682 -0.62374 1859 ft 153 kts 86°
2026-05-06 20:35 51.47690 -0.60715 1654 ft 145 kts 86°
2026-05-06 20:35 51.47700 -0.59120 1459 ft 142 kts 86°
2026-05-06 20:36 51.47706 -0.57542 1273 ft 141 kts 86°
2026-05-06 20:36 51.47711 -0.55979 1081 ft 140 kts 86°
2026-05-06 20:36 51.47718 -0.54407 865 ft 140 kts 86°
2026-05-06 20:36 51.47720 -0.52850 687 ft 138 kts 86°
2026-05-06 20:37 51.47736 -0.51316 479 ft 138 kts 86°
2026-05-06 20:37 51.47744 -0.49790 306 ft 137 kts 87°
2026-05-06 20:37 51.47742 -0.48266 121 ft 136 kts 86°
2026-05-06 20:37 51.47761 -0.46877 89 ft 102 kts 90°
2026-05-06 20:38 51.47759 -0.46016 89 ft 53 kts 89°
2026-05-06 20:38 51.47762 -0.45693 85 ft 34 kts 90°
2026-05-06 20:38 51.47663 -0.45472 89 ft 14 kts 176°
2026-05-06 20:38 51.47591 -0.45471 87 ft 7 kts 179°
2026-05-06 20:39 51.47535 -0.45462 87 ft 13 kts 161°
2026-05-06 20:39 51.47508 -0.45298 87 ft 18 kts 88°
2026-05-06 20:39 51.47511 -0.45093 91 ft 19 kts 89°
2026-05-06 20:39 51.47508 -0.44869 90 ft 21 kts 87°